Zurück zum Katalog

STARLINK-31390

AktivKommunikationVLEO
NORAD 58937·PAYLOAD·🇺🇸 United States

Gestartet Feb 10, 2024 von Vandenberg Space Force Base

Loading…

Nächste Überflüge (nächste 24 Stunden)

TLE

AktuellSource: CelesTrak SupGP

Epoche: Sep 15, 2026, 03:14 UTC

1 58937C 24027G   26258.13520833  .00026230  00000+0  77509-3 0  2586
2 58937  53.1570 148.7784 0001247  85.1374 355.0319 15.34372191    19

Verfolge STARLINK-31390 in Echtzeit mit AllMySat

Download on the App Store